This is the latest recevied weather packets stored in our database for station/object NC4J. If no packets are shown the sender has not sent any weather packets the latest 10 day(s).
| Time | Temp. | Humidity | Pressure | Rain* | Wind** | Luminosity | Snow |
|---|---|---|---|---|---|---|---|
| 1777599898 | 12.22° C | 57% | 1014.4 hPa | 0 mm | - | 0 W/m² | - |
| 1777599595 | 12.22° C | 55% | 1014.4 hPa | 0 mm | - | 0 W/m² | - |
| 1777599292 | 12.22° C | 52% | 1014.4 hPa | 0 mm | - | 0 W/m² | - |
| 1777598988 | 12.78° C | 56% | 1014 hPa | 0 mm | - | 0 W/m² | - |
| 1777598685 | 12.78° C | 52% | 1014.2 hPa | 0 mm | - | 0 W/m² | - |
| 1777598381 | 12.78° C | 52% | 1014.2 hPa | 0 mm | - | 0 W/m² | - |
| 1777598080 | 12.78° C | 51% | 1014 hPa | 0 mm | - | 0 W/m² | - |
| 1777597779 | 12.78° C | 52% | 1013.8 hPa | 0 mm | - | 0 W/m² | - |
| 1777597474 | 13.33° C | 54% | 1014 hPa | 0 mm | - | 0 W/m² | - |
| 1777597170 | 13.33° C | 51% | 1013.7 hPa | 0 mm | - | 0 W/m² | - |
| 1777596866 | 13.33° C | 51% | 1013.9 hPa | 0 mm | - | 0 W/m² | - |
| 1777596562 | 12.78° C | 51% | 1013.7 hPa | 0 mm | - | 0 W/m² | - |
| 1777596259 | 13.33° C | 52% | 1013.7 hPa | 0 mm | - | 0 W/m² | - |
| 1777595957 | 13.89° C | 54% | 1013.7 hPa | 0 mm | - | 0 W/m² | - |
| 1777595657 | 13.89° C | 46% | 1013.7 hPa | 0 mm | - | 0 W/m² | - |
| 1777595352 | 13.89° C | 46% | 1013.7 hPa | 0 mm | - | 0 W/m² | - |
| 1777595049 | 14.44° C | 46% | 1013.5 hPa | 0 mm | - | 0 W/m² | - |
| 1777594746 | 14.44° C | 46% | 1013.5 hPa | 0 mm | - | 1 W/m² | - |
| 1777594442 | 14.44° C | 45% | 1013.3 hPa | 0 mm | - | 1 W/m² | - |
| 1777594138 | 15° C | 45% | 1013.3 hPa | 0 mm | - | 2 W/m² | - |
| 1777593834 | 15° C | 44% | 1013.4 hPa | 0 mm | - | 4 W/m² | - |
| 1777593531 | 15° C | 45% | 1013.4 hPa | 0 mm | - | 6 W/m² | - |
| 1777593230 | 15° C | 47% | 1012.9 hPa | 0 mm | - | 10 W/m² | - |
| 1777592930 | 15.56° C | 45% | 1013.1 hPa | 0 mm | - | 11 W/m² | - |
| 1777592626 | 15.56° C | 45% | 1013.2 hPa | 0 mm | - | 16 W/m² | - |
* Rain latest hour (hover to see other rain measurements)
** Current wind speed in m/s (hover to see current wind gust speed)